Regional Weather Roundup
Issued by NWS Albany, NY

Home | Current Version | Previous Version | Text Only | Print | Product List | Glossary On
Versions: 1 2 3 4 5 6 7 8 9 10 11 12 13 14 15 16 17 18 19 20 21 22 23 24 25 26 27 28 29 30 31 32 33 34 35 36 37 38 39 40 41 42 43 44 45 46 47 48 49 50
000
ASUS41 KALY 212210
RWRALY

NEW YORK STATE HOURLY WEATHER ROUNDUP
NATIONAL WEATHER SERVICE ALBANY NY
600 PM EDT SAT OCT 21 2017

NOTE: "FAIR" INDICATES FEW OR NO CLOUDS BELOW 12,000 FEET WITH NO
SIGNIFICANT WEATHER AND/OR NO OBSTRUCTIONS TO VISIBILITY.

NYZ032-033-038>043-046>054-057>066-NYZ062>081-082-084-212300-
EAST


CITY           SKY/WX    TMP DP  RH WIND       PRES   REMARKS
ALBANY         MOCLDY    66  48  52 CALM      30.29R
GLENS FALLS    CLOUDY    63  51  65 CALM      30.27R
POUGHKEEPSIE   PTCLDY    66  50  56 CALM      30.29R
NEWBURGH       MOCLDY    72  46  40 SW6       30.31R
MONTGOMERY     CLOUDY    65  51  60 SW5       30.30R
WHITE PLAINS   CLOUDY    68  44  42 S6        30.31R
ISLIP          CLOUDY    64  52  64 S5        30.32S
NEW YORK CITY  CLOUDY    71  37  28 S9        30.31R
CENTRAL PARK   CLOUDY    70  39  32 CALM      30.34R
$$

NYZ005>009-017-018-044>046-055-056-212300-
CENTRAL


CITY           SKY/WX    TMP DP  RH WIND       PRES   REMARKS
FULTON         CLOUDY    62  50  64 CALM      30.26S
SYRACUSE       CLOUDY    62  51  67 CALM      30.26S
ROME           CLOUDY    63  48  58 CALM      30.29R
ELMIRA         CLOUDY    66  52  60 CALM      30.29R
BINGHAMTON     CLOUDY    66  40  38 S3        30.32S
MONTICELLO     CLOUDY    66  44  45 S5        30.35R
$$

NYZ026>034-041>043-087-212300-
NORTH


CITY           SKY/WX    TMP DP  RH WIND       PRES   REMARKS
WATERTOWN      CLOUDY    59  49  69 CALM      30.27R
FORT DRUM      NOT AVBL
OGDENSBURG     FAIR      62  50  64 SW6       30.25S
MASSENA        PTCLDY    65  52  62 SW8       30.25R
SARANAC LAKE   CLEAR     62  49  62 SW3       30.28R
PLATTSBURGH    CLOUDY    62  52  69 CALM      30.23R
$$

NYZ001>004-010>016-019>021-085-212300-
WEST


CITY           SKY/WX    TMP DP  RH WIND       PRES   REMARKS
NIAGARA FALLS  CLOUDY    70  44  39 S3        30.23R
BUFFALO        MOCLDY    69  43  38 SW3       30.24S
DUNKIRK        CLOUDY    69  52  54 S6        30.24S
JAMESTOWN      CLOUDY    67  46  47 S9        30.29S
WELLSVILLE     CLOUDY    69  36  29 S6        30.32S
ROCHESTER      CLOUDY    67  56  67 SE3       30.25S
PENN YAN       CLOUDY    62  50  64 CALM      30.28S
$$

             KEY
       WCI = WIND CHILL INDEX
       VSB = VISIBILITY
       HX  = HEAT INDEX
$$



USA.gov is the U.S. government's official web portal to all federal, state and local government web resources and services.